Miscellaneous Local Product
Issued by NWS North Platte, NE

Home | Current Version | Previous Version | Text Only | Print | Product List | Glossary On
Versions: 1 2 3 4 5 6 7 8 9 10 11 12 13 14 15 16 17 18 19 20 21 22 23 24 25 26 27 28 29 30 31 32 33 34 35 36 37 38 39 40 41 42 43 44 45 46 47 48 49 50
000
AXUS43 KLBF 140210
MISLBF


WESTERN AND NORTH CENTRAL NEBRASKA HOURLY WEATHER ROUNDUP
NATIONAL WEATHER SERVICE NORTH PLATTE NE
900 PM CDT SAT SEP 13 2014

***STATIONS NOT REPORTING VARIABLES SUCH AS SKY/WEATHER OR
PRESSURE ARE PROVIDED BY THE NEBRASKA DEPARTMENT OF
ROADS...RAWS...AND APRS NETWORKS...AND ARE NOT UNDER
NATIONAL WEATHER SERVICE QUALITY CONTROL***

...OBSERVATIONS IN AND NEAR THE EASTERN PANHANDLE OF NEBRASKA...

CITY           SKY/WX    TMP DP  RH WIND       PRES   REMARKS
PINE RIDGE     CLEAR     49  38  65 E7        30.14R
CHADRON        CLEAR     51  38  60 E6        30.12S
ALLIANCE       CLEAR     50  41  71 NE5       30.14R
SIDNEY         CLEAR     53  42  66 E8        30.14R
WHITECLAY        N/A     45  38  76 E3          N/A
RUSHVILLE        N/A     49  31  51 E13         N/A
CRESCENT LAKE    N/A     54  46  74 SE5         N/A
LISCO            N/A     58  47  64 E9          N/A
BIG SPRINGS      N/A     60  49  67 SE3         N/A
$$

...OBSERVATIONS IN NORTH CENTRAL NEBRASKA...

CITY           SKY/WX    TMP DP  RH WIND       PRES   REMARKS
VALENTINE      CLEAR     57  39  51 NE5       30.13R
THEDFORD       CLEAR     54  46  73 S8        30.15R
AINSWORTH      CLEAR     48  43  82 S3        30.14R
O`NEILL        CLEAR     52  46  77 S7        30.15R
ORD            PTCLDY    48  43  82 S6        30.17R
BROKEN BOW     PTCLDY    48  43  82 SE5       30.17R
SPRINGVIEW       N/A     50  45  81 CALM        N/A
ROSE             N/A     53  48  83 E8          N/A
NEWPORT          N/A     53  46  77 S7          N/A
COMSTOCK         N/A     50  45  81 S7          N/A
CHAMBERS         N/A     51  43  75 S5          N/A
EWING            N/A     50  44  80 CALM        N/A
$$

...OBSERVATIONS IN SOUTHWEST NEBRASKA AND FAR NORTHEAST COLORADO...

CITY           SKY/WX    TMP DP  RH WIND       PRES   REMARKS
WRAY           FAIR      56  47  70 E3        30.14S
HOLYOKE        FAIR      54  46  76 E7        30.15R
IMPERIAL       CLEAR     52  45  77 E6        30.15R
OGALLALA       CLEAR     52  47  83 E5        30.15R
NORTH PLATTE   PTCLDY    46  42  86 SE6       30.17R
MCCOOK         PTCLDY    51  45  79 E6        30.16R
LEXINGTON      MOCLDY    49  45  84 SE7       30.19R
PAXTON           N/A     57  48  71 CALM        N/A
SUTHERLAND       N/A     46  41  82 S6          N/A
BRADY            N/A     50  44  80 CALM        N/A
GOTHENBURG       N/A     56  43  61 CALM        N/A
CALLAWAY         N/A     52  46  79 S5          N/A
$$

...SOME WEATHER OBSERVATIONS FROM AROUND THE REGION...

CITY           SKY/WX    TMP DP  RH WIND       PRES   REMARKS
DENVER         PTCLDY    60  40  47 NE10      30.14R
LARAMIE        MOCLDY    57  34  41 S16       30.21R
CHEYENNE       CLEAR     53  31  42 E5        30.20R
SCOTTSBLUFF    CLEAR     52  41  66 NE7       30.14R
RAPID CITY     PTCLDY    49  37  63 N8        30.16R
PIERRE         PTCLDY    56  41  57 NW14      30.11R
WINNER         FAIR      61  40  45 W5        30.11R
SIOUX FALLS    PTCLDY    52  43  71 S12       30.14S
OMAHA          MOCLDY    59  42  53 S10       30.23S
GRAND ISLAND   CLOUDY    55  45  68 S6        30.21R
KANSAS CITY    CLEAR     53  43  68 SE7       30.26R
WICHITA        PTCLDY    58  42  55 SE6       30.22R
HAYS           CLEAR     54  43  66 SE9       30.18S
LIBERAL        PTCLDY    63  46  55 SE13      30.17R
GOODLAND       CLEAR     53  49  86 S8        30.16R
$$



USA.gov is the U.S. government's official web portal to all federal, state and local government web resources and services.